Temperature
17 17 17 17 17 17 17 17 17 17 17 17 17 17 17 17 17 17 17 17 18 18 18 18 17 17 18 18 18 18 18 18 18 18 18 18 18 17 17 17 17 17 17
17 17 17 17 17 17 17 17 17 17 17 17 17 17 17 17 17 17 17 17 17 17 17 18 17 17 17 17 17 18 18 18 18 17 17 17 17 17 17 17 17 17 17
17 17 17 17 17 17 17 17 17 17 17 17 17 17 17 17 17 17 17 17 17 17 17 17 17 17 17 17 17 17 18 18 17 17 17 17 17 17 17 17 17 17 17
17 16 17 17 17 17 17 17 17 17 17 17 17 17 17 17 17 17 17 17 17 17 17 17 17 17 17 17 17 17 17 17 17 17 16 16 16 17 17 17 17 17 17
16 16 17 17 17 17 17 17 17 17 17 17 17 17 17 17 17 17 17 17 17 17 17 17 17 17 17 17 17 17 17 17 17 16 16 16 16 17 17 17 17 17 17
16 16 16 17 17 17 17 17 17 17 17 17 17 17 17 17 17 16 17 17 17 17 17 17 17 17 17 17 17 17 17 17 16 16 16 16 16 16 16 16 17 16 16
16 16 16 17 17 17 17 17 17 17 17 16 16 16 16 17 16 16 17 17 17 17 17 17 17 17 17 17 17 17 17 17 16 16 16 16 16 16 16 16 16 16 16
16 16 16 17 17 17 17 17 16 16 16 16 16 16 16 16 16 16 16 16 16 17 17 17 17 17 17 17 17 17 17 16 16 16 16 16 16 16 16 16 16 16 16
16 16 16 16 16 16 16 16 16 16 16 16 16 16 16 16 16 16 16 16 16 16 16 16 16 16 17 17 17 17 17 16 16 16 15 15 16 16 16 16 16 16 16
16 16 16 16 16 16 16 16 16 16 16 16 16 16 16 16 16 16 16 16 16 16 16 16 16 16 16 16 16 16 16 16 15 15 15 15 16 16 16 16 16 16 16
16 16 16 16 16 16 16 16 16 16 16 16 16 16 16 15 15 15 16 16 16 16 16 16 16 16 16 16 16 16 16 16 15 15 15 15 15 15 16 16 16 16 16
16 16 16 16 16 16 16 16 16 16 16 15 15 15 15 15 15 15 16 16 16 16 16 16 16 16 16 16 16 16 15 15 15 15 15 15 15 15 15 15 16 16 16
17 16 16 16 16 16 16 16 16 15 15 15 15 15 15 15 15 15 15 15 15 15 15 16 15 15 15 15 15 15 15 15 15 15 15 15 15 15 15 15 15 15 15
17 16 16 16 16 16 16 16 16 15 15 15 15 15 15 15 15 15 15 15 15 15 15 15 15 15 15 15 15 15 15 15 15 15 15 15 15 15 15 15 15 15 15
17 16 16 16 16 16 16 16 15 15 15 15 15 15 15 15 15 15 15 15 15 15 15 15 15 15 15 15 15 15 15 15 15 14 14 15 15 15 15 15 15 15 15
17 17 16 16 16 16 16 16 16 15 15 15 15 15 15 15 15 15 15 15 14 15 15 15 15 15 15 15 14 14 14 14 14 14 14 14 14 14 15 15 15 15 14
17 17 16 16 16 16 16 16 15 15 15 15 15 15 15 14 14 14 14 14 14 14 14 14 14 14 14 14 14 14 14 14 14 14 14 14 14 14 14 14 14 14 14
17 17 16 16 16 16 16 15 15 15 15 15 14 14 14 14 14 14 14 14 14 14 14 14 14 14 14 14 14 14 14 14 14 14 14 14 14 14 14 14 14 14 14
17 16 16 16 16 16 15 15 15 15 15 15 14 14 14 14 14 14 14 14 14 14 14 14 14 14 14 14 14 14 14 14 14 14 13 13 13 13 13 14 14 14 14
17 16 16 16 16 16 15 15 15 15 15 14 14 14 14 14 14 14 14 14 14 14 14 14 14 14 14 14 14 14 14 14 13 13 13 13 13 13 13 13 13 13 13
16 16 16 16 16 16 15 15 15 15 15 14 14 14 14 14 14 14 14 14 14 13 13 13 13 13 13 13 13 14 14 13 13 13 13 13 13 13 13 13 13 13 13
16 16 16 16 16 16 15 15 15 15 15 14 14 14 14 14 14 14 13 13 13 13 13 13 13 13 13 13 13 14 14 14 13 13 13 13 13 13 13 13 13 13 13
16 16 16 16 16 15 15 15 15 15 15 14 14 14 14 14 14 14 13 13 13 13 13 13 13 13 13 13 13 13 14 15 14 13 13 13 13 13 12 13 12 12 12
16 16 16 16 16 15 15 15 15 15 14 14 14 14 14 14 14 14 13 13 13 13 13 13 13 13 12 13 13 13 13 13 14 14 13 13 13 12 12 12 12 12 12
16 16 16 16 16 15 15 15 15 14 14 14 14 14 14 14 14 14 13 13 13 13 13 13 12 12 12 12 12 12 12 13 13 13 13 13 13 12 12 12 12 12 12
16 16 16 16 15 15 15 15 15 15 14 14 14 14 14 14 14 13 13 13 13 13 13 12 12 12 12 12 12 12 12 12 13 13 13 13 13 13 12 12 12 12 12
Wind_Speed
3 5 7 6 7 8 8 8 9 9 8 8 9 9 10 10 10 9 10 10 10 9 9 10 10 10 10 9 9 9 9 8 8 8 8 7 6 6 7 6 5 6 7
4 5 7 6 7 8 8 8 9 9 8 8 9 10 10 10 10 10 10 10 10 10 10 9 9 9 9 9 9 9 9 8 8 8 7 8 9 8 7 7 6 6 6
5 6 7 7 7 8 8 9 9 9 9 9 10 10 10 10 10 10 10 11 11 10 10 10 10 9 9 9 9 9 9 8 7 6 4 6 9 9 8 7 7 7 6
6 6 7 7 8 8 9 10 10 10 10 10 11 11 11 11 11 11 11 11 11 11 10 10 10 9 9 9 9 9 9 8 6 3 5 6 7 10 8 7 6 6 6
6 7 8 7 8 8 8 9 10 10 11 11 11 11 11 11 11 11 12 12 12 11 11 11 10 9 9 9 9 9 8 7 5 5 6 6 7 8 7 7 7 7 7
7 7 9 7 8 8 9 9 10 10 11 11 11 11 11 11 11 12 12 12 13 12 11 11 10 9 9 9 9 9 8 5 4 7 7 7 8 8 8 8 7 7 7
7 7 8 8 8 8 9 9 10 10 10 11 11 11 11 11 11 11 12 12 12 12 12 11 10 10 10 9 9 8 8 5 8 8 8 9 10 10 9 8 8 8 7
6 6 8 8 8 8 9 10 10 10 10 10 10 10 11 11 11 11 12 12 12 12 12 11 11 11 10 9 8 8 7 5 8 8 8 9 10 10 9 8 9 9 8
6 6 6 7 8 9 10 10 10 10 9 10 10 10 10 10 10 11 11 11 11 11 11 11 11 11 10 9 8 7 7 6 7 7 7 8 9 9 10 10 9 9 9
6 5 5 6 7 8 10 10 10 10 9 9 9 9 8 8 9 9 10 11 11 11 11 12 12 11 10 9 8 7 4 3 7 7 7 9 9 9 9 10 10 9 9
5 5 5 5 6 7 8 8 8 8 8 7 7 7 5 6 8 8 11 11 11 11 11 11 11 10 9 10 9 5 3 6 7 7 8 9 8 9 9 10 10 10 10
5 5 4 4 5 5 6 6 5 6 6 5 6 5 5 6 7 8 10 10 10 9 9 10 8 6 5 7 7 3 5 7 7 7 8 9 9 9 9 10 10 10 10
5 4 4 4 4 4 4 4 4 4 4 5 5 6 5 5 5 5 5 6 6 6 6 6 5 6 6 6 6 7 7 7 7 7 8 9 8 8 9 9 9 10 10
5 4 4 3 4 4 4 4 4 3 3 4 4 5 4 3 4 4 4 5 4 5 5 5 5 6 6 6 6 7 7 6 6 7 8 10 9 10 9 9 9 9 9
5 4 4 3 3 3 4 3 3 3 3 4 4 3 4 3 3 3 4 4 4 4 4 4 5 6 5 6 6 6 7 7 6 6 7 10 10 10 9 9 9 8 8
5 4 4 3 3 3 3 3 3 3 3 3 3 3 4 3 3 3 3 3 3 4 4 4 4 4 4 5 5 6 6 6 6 6 6 7 9 9 9 9 9 8 7
4 4 4 3 3 3 3 3 3 2 2 3 3 3 4 3 3 3 2 3 3 3 3 4 4 3 3 3 4 5 5 5 5 5 6 5 5 7 8 8 9 9 8
4 4 4 3 3 3 2 2 2 2 2 2 2 2 3 2 3 3 2 2 2 2 3 3 3 3 3 3 3 3 4 4 5 5 5 5 4 5 6 8 8 9 8
5 5 5 4 4 3 3 2 2 2 2 2 2 2 1 2 2 2 2 2 2 2 2 2 2 2 2 2 2 3 3 3 3 3 4 5 5 4 5 5 6 8 9
5 5 5 5 4 4 3 2 2 2 1 1 1 1 1 1 1 1 1 1 2 1 1 1 2 2 1 1 2 2 2 2 2 3 3 3 4 5 5 4 3 5 7
6 6 6 5 5 4 3 2 2 2 1 1 1 1 1 0 0 1 1 1 1 0 0 0 1 1 1 1 1 1 1 1 2 2 2 2 2 3 3 4 4 3 3
7 7 6 6 5 5 3 3 2 2 1 1 1 1 1 1 0 0 1 1 1 1 1 1 0 1 1 1 2 2 1 1 1 1 1 1 2 2 2 3 3 3 3
7 7 6 6 6 5 5 3 3 2 2 2 2 2 1 1 1 1 1 1 2 2 2 2 2 2 1 1 2 2 2 1 1 1 1 1 2 2 1 2 2 3 2
6 6 6 6 6 6 6 5 5 4 3 2 2 2 2 2 1 1 2 2 2 2 2 2 2 2 2 2 1 2 3 3 3 1 1 1 2 2 2 1 2 2 2
5 6 6 6 6 6 6 6 5 4 3 2 2 2 2 2 2 2 2 2 2 2 2 2 2 2 2 3 2 2 2 2 4 3 2 2 1 1 1 2 2 2 2
4 5 6 6 6 6 6 6 6 5 4 3 3 2 2 2 2 2 2 2 2 2 3 3 3 3 3 3 3 3 3 3 3 3 3 3 3 2 1 1 2 1 1
Wind_Direction
68 67 61 62 68 72 75 76 78 76 75 78 80 81 79 81 79 77 73 73 75 76 80 81 82 82 81 82 83 82 84 83 80 77 73 69 76 88 85 80 84 93 89
89 83 74 66 73 76 76 78 79 77 77 79 78 80 80 80 76 74 72 71 74 75 77 79 81 83 80 81 82 82 81 81 78 76 76 79 81 87 85 75 62 68 78
97 90 88 72 77 79 77 79 81 79 79 79 79 80 81 79 75 73 71 71 73 74 76 78 79 81 81 81 83 82 79 77 77 81 87 81 81 75 75 75 71 66 70
98 89 81 74 76 81 80 79 83 81 79 79 80 81 82 79 75 73 72 72 73 74 75 75 73 76 79 80 81 81 76 72 69 72 78 72 76 74 68 66 66 63 64
98 88 82 74 78 82 81 82 86 84 81 81 80 80 80 79 77 74 71 70 71 73 73 72 68 71 76 79 78 76 74 72 71 68 70 70 70 72 69 66 66 62 58
102 92 88 76 79 84 84 84 86 86 83 81 80 80 78 77 76 74 71 68 68 69 71 69 66 65 71 71 72 72 74 67 72 66 63 65 68 69 65 66 67 62 56
105 95 93 81 82 86 86 88 87 85 83 82 80 80 80 77 76 73 70 68 67 66 66 68 67 67 68 68 70 71 69 57 68 67 65 66 66 66 65 64 66 65 58
104 98 99 98 88 86 86 88 87 84 81 81 80 79 77 75 72 69 68 69 67 66 66 66 67 66 66 67 69 68 61 39 73 67 67 66 62 62 63 61 61 60 55
103 98 95 99 105 102 92 88 86 82 81 81 80 78 78 78 75 71 69 69 69 68 67 66 66 65 65 67 70 70 68 46 63 64 66 64 59 58 59 55 57 56 52
107 98 93 94 95 99 100 91 86 81 78 79 78 76 80 87 85 75 71 67 68 68 66 65 64 65 65 69 69 70 76 72 64 62 60 63 58 57 57 55 53 52 52
110 98 92 91 90 90 92 98 98 92 81 85 87 84 87 85 84 85 68 63 64 66 65 65 64 65 69 78 72 69 73 63 64 58 57 57 55 56 58 57 54 50 50
121 107 94 88 87 91 91 94 89 88 88 76 73 79 75 76 77 77 80 69 67 66 73 68 67 72 60 69 74 71 59 58 57 60 59 55 54 56 57 56 52 49 47
124 112 100 97 91 89 92 88 82 79 80 73 66 71 73 77 84 80 80 80 72 65 66 74 72 59 57 57 50 51 49 48 50 51 57 55 49 51 53 51 51 48 46
118 111 104 98 99 95 93 89 89 86 80 73 64 71 73 75 74 72 71 63 62 59 52 52 56 59 56 58 55 51 49 46 45 46 55 57 53 53 52 48 47 47 45
131 127 113 105 95 97 93 83 85 84 78 81 69 63 70 71 74 76 77 65 57 54 53 51 54 54 51 48 48 46 44 43 44 44 56 61 56 50 47 47 43 42 41
146 136 127 120 106 102 101 97 81 78 87 80 77 66 68 71 74 76 80 70 57 47 49 53 61 60 55 53 47 44 41 38 40 42 51 62 63 52 44 42 40 37 34
158 146 139 136 124 114 104 92 86 82 87 83 81 76 69 69 70 69 69 70 60 55 61 61 62 60 63 61 54 47 43 38 40 46 49 46 57 62 49 39 37 34 32
170 158 148 154 150 137 121 106 98 94 85 84 81 90 81 81 82 73 71 66 59 60 68 67 58 56 59 49 43 41 43 45 44 45 49 52 48 45 55 46 34 32 39
181 173 164 167 167 157 145 131 115 107 91 85 83 86 92 92 88 89 83 76 68 70 71 68 57 54 54 46 34 31 33 37 39 42 48 48 48 40 42 57 45 39 48
186 183 175 174 178 166 161 156 144 135 117 99 91 76 64 80 102 102 112 91 79 78 70 74 75 65 52 48 28 24 28 33 44 36 38 47 43 38 32 29 38 70 64
191 192 186 185 182 176 173 177 179 178 172 151 109 102 99 8 130 118 170 135 102 103 338 51 67 81 40 5 338 9 41 52 45 46 22 18 34 31 24 28 23 26 79
196 198 192 191 188 185 184 187 191 191 199 189 171 169 190 199 241 247 224 210 202 218 245 232 226 280 295 301 305 299 300 193 125 46 18 354 352 21 9 12 18 27 26
200 198 199 195 192 189 184 183 184 175 185 180 186 191 211 228 231 263 265 236 224 223 231 245 246 261 283 287 310 304 299 313 351 172 9 340 351 348 339 351 358 6 20
203 200 201 198 198 194 189 193 196 199 204 211 201 196 198 204 222 250 259 248 234 231 236 246 247 260 265 264 278 301 312 315 290 270 227 347 349 332 327 321 317 337 358
198 196 200 197 197 197 197 196 206 212 217 209 204 205 204 192 211 240 259 247 238 232 240 250 258 260 259 265 261 259 273 283 277 283 285 290 286 307 319 303 292 302 317
191 192 195 197 196 195 199 202 206 211 211 207 208 207 208 195 209 233 254 247 242 237 238 239 240 247 257 264 267 265 266 270 275 277 279 284 292 297 293 291 279 277 280
Height
1531 1530 1529 1529 1528 1527 1527 1527 1526 1526 1525 1525 1525 1524 1524 1524 1523 1523 1523 1522 1522 1521 1521 1521 1521 1521 1521 1521 1520 1520 1520 1520 1520 1520 1519 1518 1515 1517 1519 1520 1521 1521 1521
1532 1531 1530 1530 1529 1529 1528 1528 1528 1527 1526 1526 1526 1525 1525 1525 1525 1524 1524 1524 1523 1523 1523 1523 1523 1523 1523 1522 1522 1522 1522 1521 1521 1521 1520 1518 1516 1518 1520 1521 1521 1522 1522
1533 1532 1532 1531 1531 1530 1530 1530 1529 1528 1527 1527 1527 1527 1527 1527 1526 1526 1526 1525 1525 1524 1524 1524 1524 1524 1524 1524 1523 1523 1523 1523 1522 1522 1522 1522 1520 1520 1521 1522 1522 1522 1522
1534 1533 1533 1532 1532 1532 1531 1531 1530 1530 1529 1528 1528 1528 1528 1528 1528 1528 1527 1527 1527 1526 1526 1525 1526 1525 1525 1525 1525 1524 1524 1524 1524 1524 1524 1524 1523 1523 1523 1523 1523 1523 1523
1535 1535 1534 1533 1533 1533 1533 1532 1532 1531 1531 1530 1530 1530 1530 1530 1529 1529 1529 1528 1528 1528 1527 1527 1527 1527 1527 1526 1526 1526 1526 1525 1525 1525 1525 1525 1524 1524 1524 1524 1524 1523 1523
1536 1536 1535 1534 1534 1534 1534 1534 1533 1533 1533 1532 1532 1532 1532 1532 1531 1531 1530 1530 1530 1529 1529 1528 1528 1528 1528 1528 1527 1527 1527 1526 1527 1527 1526 1526 1525 1525 1525 1525 1524 1524 1523
1537 1537 1536 1536 1536 1535 1535 1535 1535 1535 1534 1534 1534 1534 1534 1533 1533 1533 1532 1532 1531 1531 1530 1530 1530 1529 1529 1529 1528 1528 1528 1527 1528 1528 1527 1527 1526 1526 1525 1525 1525 1524 1524
1538 1538 1538 1537 1537 1537 1537 1537 1536 1536 1536 1536 1536 1535 1535 1535 1535 1534 1534 1533 1533 1532 1532 1531 1531 1531 1530 1530 1529 1529 1529 1529 1530 1530 1529 1528 1527 1527 1526 1526 1525 1525 1524
1539 1539 1540 1539 1539 1538 1538 1538 1538 1538 1538 1537 1537 1537 1537 1537 1536 1536 1535 1535 1534 1534 1533 1533 1532 1532 1531 1530 1530 1530 1529 1529 1531 1531 1531 1530 1529 1528 1527 1526 1526 1525 1524
1540 1541 1541 1541 1541 1541 1540 1539 1539 1539 1539 1539 1539 1538 1538 1538 1538 1538 1537 1536 1536 1535 1535 1535 1534 1533 1532 1532 1531 1531 1531 1531 1532 1532 1532 1531 1530 1529 1528 1527 1526 1526 1525
1541 1542 1542 1542 1542 1542 1542 1541 1541 1541 1540 1540 1540 1540 1540 1540 1540 1539 1539 1538 1538 1537 1537 1536 1536 1535 1534 1533 1533 1532 1532 1533 1533 1533 1532 1531 1531 1530 1529 1528 1527 1527 1525
1542 1543 1543 1543 1543 1543 1543 1543 1543 1542 1542 1542 1542 1542 1542 1542 1541 1541 1540 1540 1539 1539 1538 1538 1537 1537 1536 1536 1535 1534 1535 1535 1535 1534 1533 1532 1532 1531 1530 1529 1528 1527 1526
1543 1543 1544 1544 1544 1544 1544 1544 1543 1543 1543 1543 1543 1543 1543 1543 1543 1543 1542 1542 1541 1540 1540 1539 1539 1538 1538 1537 1536 1536 1536 1535 1535 1535 1534 1533 1532 1532 1530 1529 1528 1527 1526
1543 1544 1544 1544 1545 1545 1545 1544 1544 1544 1544 1544 1544 1544 1544 1543 1544 1543 1543 1543 1542 1542 1541 1541 1540 1540 1539 1539 1538 1537 1537 1536 1536 1536 1535 1534 1533 1532 1531 1530 1529 1527 1526
1543 1544 1544 1545 1545 1545 1545 1545 1545 1545 1545 1545 1544 1544 1545 1544 1544 1544 1544 1543 1543 1543 1542 1542 1541 1540 1540 1540 1539 1539 1538 1538 1537 1537 1535 1534 1533 1532 1531 1530 1529 1527 1526
1544 1544 1545 1545 1545 1545 1546 1546 1545 1545 1545 1545 1545 1545 1545 1545 1545 1545 1545 1544 1544 1543 1543 1542 1542 1541 1541 1540 1540 1539 1539 1538 1538 1537 1536 1534 1533 1532 1531 1530 1528 1526 1525
1544 1544 1545 1545 1545 1546 1546 1546 1546 1546 1546 1546 1546 1546 1546 1546 1546 1545 1545 1545 1545 1544 1544 1543 1543 1542 1542 1541 1541 1540 1539 1539 1538 1537 1536 1535 1534 1533 1531 1530 1528 1525 1522
1543 1544 1545 1545 1545 1545 1546 1545 1546 1546 1546 1546 1546 1546 1546 1546 1546 1546 1546 1545 1545 1545 1544 1544 1543 1543 1543 1542 1542 1541 1540 1539 1539 1538 1537 1536 1535 1533 1532 1530 1528 1524 1520
1543 1544 1544 1544 1545 1545 1545 1545 1545 1546 1545 1545 1545 1546 1546 1546 1546 1546 1546 1546 1545 1545 1545 1544 1544 1544 1543 1542 1542 1541 1540 1540 1539 1538 1538 1537 1535 1534 1533 1530 1528 1526 1523
1542 1543 1544 1544 1544 1545 1545 1545 1545 1545 1545 1545 1545 1545 1545 1546 1546 1546 1546 1546 1545 1545 1545 1545 1544 1544 1543 1543 1542 1541 1541 1540 1539 1538 1538 1537 1536 1535 1533 1532 1530 1528 1526
1540 1542 1542 1543 1543 1544 1544 1544 1544 1545 1545 1545 1545 1545 1545 1545 1545 1545 1545 1545 1545 1545 1545 1545 1544 1544 1543 1543 1543 1542 1541 1540 1539 1538 1538 1537 1536 1535 1533 1532 1531 1530 1529
1539 1540 1541 1541 1542 1542 1543 1543 1544 1544 1544 1544 1544 1544 1545 1545 1545 1544 1545 1544 1544 1544 1544 1544 1544 1544 1543 1543 1543 1542 1542 1542 1540 1539 1538 1537 1536 1535 1533 1533 1532 1530 1529
1537 1538 1539 1540 1541 1541 1541 1542 1543 1543 1543 1544 1543 1543 1544 1544 1543 1543 1543 1543 1543 1544 1544 1543 1543 1543 1543 1543 1542 1543 1542 1541 1540 1539 1538 1537 1536 1534 1533 1532 1532 1531 1530
1534 1536 1537 1538 1539 1539 1540 1541 1541 1542 1542 1542 1543 1543 1543 1543 1543 1542 1542 1542 1542 1542 1542 1542 1542 1542 1542 1542 1541 1541 1542 1541 1540 1539 1538 1537 1535 1534 1533 1532 1531 1530 1529
1533 1533 1535 1536 1537 1538 1538 1539 1540 1541 1541 1542 1542 1542 1542 1542 1542 1541 1541 1541 1541 1541 1541 1541 1541 1541 1541 1541 1541 1540 1540 1539 1539 1539 1537 1537 1535 1534 1532 1531 1530 1530 1529
1530 1531 1532 1534 1535 1535 1536 1537 1538 1539 1539 1540 1540 1540 1541 1541 1540 1540 1540 1540 1539 1539 1539 1539 1539 1539 1539 1539 1539 1539 1539 1538 1538 1537 1536 1535 1534 1533 1531 1530 1529 1528 1527